Weather in Akhkinchu-Barzoy

Russia / Chechen Republic     43°08′02″N   46°11′45″E
temp.,
°C
wind,
m/s
gust,
m/s
humid.,
%
clouds,
%
prec.,
mm/h
press.,
hPa
HPBL,
m
11 may, tue
tue1100:00+6sw227270 0.0 102112
03:00+6s22725 0.0 102013
06:00+7nne11700 0.0 101892
09:00+14e44504 0.0 10171429
12:00+17ene77400 0.0 10141541
15:00+17e89460 0.0 1012981
18:00+13ene710600 0.0 1013475
21:00+8e14770 0.0 101475
12 may, wed
wed1200:00+6sw11901 0.0 101515
03:00+6sw22910 0.0 101516
06:00+9sw12790 0.0 1016107
09:00+15w33570 0.0 1016728
12:00+19nnw22490 0.0 10151158
15:00+21ne21490 0.0 10141283
18:00+18ene24650 0.0 1014110
21:00+13sse227690 0.0 101518
13 may, thu
thu1300:00+12sse118094 0.0 101413
03:00+11ese11840 0.0 101311
06:00+13se11770 0.0 101461
09:00+20ne33580 0.0 1014497
12:00+24ene44480 0.0 1013843
15:00+23ene44532 0.0 1013759
18:00+20ene35715 0.0 1013230
21:00+14sse11895 0.0 101413
14 may, fri
fri1400:00+13sw01915 0.0 101411
03:00+13ssw11915 0.0 101310
06:00+16ese017963 0.0 101343
09:00+22nne21640 0.0 1013409
12:00+27ne33481 0.0 1012687
15:00+30ne45394 0.0 1010876
18:00+24n126165 0.0 101042
21:00+19s11740 0.0 101112
15 may, sat
sat1500:00+18ssw11720 0.0 101117
03:00+17s11690 0.0 101114
06:00+19sw11660 0.0 101236
09:00+25nne21541 0.0 1012450
12:00+28ne32506 0.0 1012965
15:00+29ne22414 0.0 10111135
18:00+24ene225145 0.0 101136
21:00+19ssw1265100 0.1 101222